DW3921 Weather Reports


time (UTC)temp
C
wind
direction
speed
KPH
gust
KPH
rain 1hr
cm
rain 24hr
cm
rain mn
cm
humidity
%
barometer
mb
20260506051006 18 20 8.0 11.3 0.00 0.00 0.00 78 1020.8
20260506045006 19 34 1.6 9.7 0.00 0.00 0.00 78 1020.7
20260506044006 19 39 3.2 9.7 0.00 0.00 0.00 77 1020.6
20260506043006 20 34 4.8 11.3 0.00 0.00 0.00 73 1020.6
20260506042006 20 29 4.8 11.3 0.00 0.00 0.00 73 1020.8
20260506041006 20 36 3.2 16.1 0.00 0.00 0.00 72 1020.7
20260506040006 20 39 3.2 11.3 0.00 0.00 0.00 74 1021.0
20260506035006 20 29 3.2 11.3 0.00 0.00 0.00 75 1020.9
20260506034006 20 31 3.2 11.3 0.00 0.00 0.00 74 1020.8
20260506032006 21 22 6.4 19.3 0.00 0.00 0.00 66 1020.7
20260506031005 21 32 8.0 22.5 0.00 0.00 0.00 66 1020.9
20260506030006 21 34 9.7 25.7 0.00 0.00 0.00 67 1020.9
20260506025006 21 27 8.0 22.5 0.00 0.00 0.00 67 1020.9
20260506024005 20 21 8.0 22.5 0.00 0.00 0.00 69 1021.3
20260506023006 20 29 3.2 25.7 0.00 0.00 0.00 73 1021.2
20260506021006 21 32 6.4 16.1 0.00 0.00 0.00 74 1021.0
20260506020009 20 36 4.8 16.1 0.00 0.00 0.00 75 1021.0
20260506015005 20 31 4.8 19.3 0.00 0.00 0.00 74 1021.1
20260506014006 20 37 6.4 16.1 0.00 0.00 0.00 74 1020.8
20260506013007 20 35 1.6 16.1 0.00 0.00 0.00 76 1020.5
20260506012006 20 31 8.0 16.1 0.00 0.00 0.00 74 1020.4
20260506011006 21 29 4.8 19.3 0.00 0.00 0.00 75 1020.7
20260506010006 21 45 8.0 16.1 0.00 0.00 0.00 72 1020.9
20260506005006 20 34 6.4 22.5 0.00 0.00 0.00 76 1021.4
20260506004005 20 27 8.0 22.5 0.00 0.00 0.00 74 1021.5
20260506003006 20 24 4.8 19.3 0.00 0.00 0.00 75 1021.9
20260506002006 21 40 3.2 11.3 0.00 0.00 0.00 73 1022.0
20260506001005 20 42 4.8 11.3 0.00 0.00 0.00 73 1022.4
20260506000006 20 17 1.6 16.1 0.00 0.00 0.00 74 1022.4
20260505235006 21 24 4.8 16.1 0.00 0.00 0.00 71 1023.0
20260505233008 21 30 4.8 11.3 0.00 0.00 0.00 74 1023.6
20260505231006 20 32 4.8 14.5 0.00 0.00 0.00 75 1024.4
20260505230007 20 36 8.0 14.5 0.00 0.00 0.00 74 1024.7
20260505224006 20 24 4.8 11.3 0.00 0.00 0.00 77 1025.6
20260505223007 18 30 1.6 11.3 0.00 0.00 0.00 80 1025.7
20260505222008 18 3 1.6 9.7 0.00 0.00 0.00 82 1025.8
20260505221006 18 25 1.6 9.7 0.00 0.00 0.00 82 1026.0
20260505220006 18 39 1.6 9.7 0.00 0.00 0.00 82 1026.5
20260505215006 17 0 0.0 4.8 0.00 0.00 0.00 83 1026.9
20260505214006 17 0 0.0 9.7 0.00 0.00 0.00 84 1027.8
20260505213007 16 33 3.2 9.7 0.00 0.00 0.00 87 1028.5
20260505212005 14 45 1.6 4.8 0.00 0.00 0.00 92 1029.1
20260505210006 13 35 1.6 9.7 0.00 0.00 0.00 92 1029.9
20260505205005 13 0 0.0 9.7 0.00 0.00 0.00 93 1030.2
20260505204006 12 1 1.6 9.7 0.00 0.00 0.00 93 1030.5
20260505202006 11 45 1.6 4.8 0.00 0.00 0.00 96 1030.9
20260505201005 11 0 0.0 3.2 0.00 0.00 0.00 97 1031.0
20260505200006 11 0 0.0 4.8 0.00 0.00 0.00 96 1031.1
20260505195006 11 0 0.0 3.2 0.00 0.00 0.00 96 1031.1
20260505194006 11 38 1.6 4.8 0.00 0.00 0.00 96 1031.2
20260505193006 10 0 0.0 4.8 0.00 0.00 0.00 96 1030.9
20260505192006 10 38 1.6 4.8 0.00 0.00 0.00 97 1030.9
20260505191006 10 38 1.6 4.8 0.00 0.00 0.00 97 1030.9
20260505190006 10 0 0.0 0.0 0.00 0.00 0.00 97 1030.8
20260505185005 10 0 0.0 3.2 0.00 0.00 0.00 97 1030.8
20260505184005 10 0 0.0 4.8 0.00 0.00 0.00 97 1031.1
20260505183006 10 0 0.0 9.7 0.00 0.00 0.00 98 1030.7
20260505182007 10 45 3.2 4.8 0.00 0.00 0.00 98 1030.7
20260505181007 10 38 1.6 4.8 0.00 0.00 0.00 98 1030.7
20260505175006 10 0 0.0 4.8 0.00 0.00 0.00 98 1030.5
20260505174005 10 45 3.2 4.8 0.00 0.00 0.00 98 1030.5
20260505172006 10 0 0.0 4.8 0.00 0.00 0.00 98 1030.4
20260505170007 9 0 0.0 4.8 0.00 0.00 0.00 98 1030.6
20260505165006 9 45 1.6 4.8 0.00 0.00 0.00 98 1030.4
20260505164006 9 0 0.0 4.8 0.00 0.00 0.00 98 1030.3
20260505163009 9 0 0.0 4.8 0.00 0.00 0.00 98 1030.5
20260505162006 9 0 0.0 4.8 0.00 0.00 0.00 98 1030.6
20260505161005 9 0 0.0 3.2 0.00 0.00 0.00 98 1031.0
20260505153007 8 45 3.2 4.8 0.00 0.00 0.00 98 1030.8
20260505152006 8 0 0.0 0.0 0.00 0.00 0.00 98 1030.1
20260505151005 8 0 0.0 3.2 0.00 0.00 0.00 98 1030.2
20260505125006 8 355 1.6 4.8 0.00 0.00 0.00 99 1029.0
20260505124006 8 26 1.6 9.7 0.00 0.00 0.00 99 1029.0
20260505123006 8 45 1.6 4.8 0.00 0.00 0.00 99 1028.8
20260505122005 8 0 0.0 4.8 0.00 0.00 0.00 99 1028.7
20260505121005 8 0 0.0 4.8 0.00 0.00 0.00 99 1028.4
20260505120012 8 0 0.0 3.2 0.00 0.00 0.00 99 1028.5
20260505114006 8 0 0.0 0.0 0.00 0.00 0.00 99 1028.0
20260505113006 8 0 0.0 4.8 0.00 0.00 0.00 99 1027.8
20260505112006 8 68 1.6 4.8 0.00 0.00 0.00 99 1027.6
20260505111005 8 0 0.0 0.0 0.00 0.00 0.00 99 1027.7
20260505102006 9 0 0.0 3.2 0.00 0.00 0.00 99 1027.3
20260505101006 9 0 0.0 3.2 0.00 0.00 0.00 99 1027.4
20260505100007 9 0 0.0 3.2 0.00 0.00 0.00 99 1027.2
20260505095006 9 0 0.0 3.2 0.00 0.00 0.00 99 1027.0
20260505094005 9 0 0.0 4.8 0.00 0.00 0.00 99 1027.2
20260505093006 10 90 1.6 3.2 0.00 0.00 0.00 99 1027.0
20260505092007 10 90 1.6 3.2 0.00 0.00 0.00 99 1027.0
20260505091005 10 0 0.0 4.8 0.00 0.00 0.00 98 1026.8
20260505090006 10 0 0.0 0.0 0.00 0.00 0.00 98 1026.6
20260505085006 10 0 0.0 0.0 0.00 0.00 0.00 98 1026.5
20260505084005 10 0 0.0 0.0 0.00 0.00 0.00 98 1026.6
20260505083006 10 0 0.0 0.0 0.00 0.00 0.00 98 1026.7
20260505082006 10 0 0.0 0.0 0.00 0.00 0.00 98 1026.8
20260505081005 10 0 0.0 0.0 0.00 0.00 0.00 98 1026.5
20260505080006 10 0 0.0 0.0 0.00 0.00 0.00 98 1026.6
20260505075007 10 0 0.0 0.0 0.00 0.00 0.00 97 1026.2
20260505074005 10 0 0.0 0.0 0.00 0.00 0.00 97 1026.1
20260505073006 10 0 0.0 0.0 0.00 0.00 0.00 97 1026.0
20260505072007 10 0 0.0 0.0 0.00 0.00 0.00 96 1026.1
20260505071005 10 0 0.0 0.0 0.00 0.00 0.00 96 1025.9
20260505070008 11 0 0.0 0.0 0.00 0.00 0.00 96 1026.1
20260505065006 11 0 0.0 0.0 0.00 0.00 0.00 95 1025.8
20260505064006 11 0 0.0 0.0 0.00 0.00 0.00 95 1026.0
20260505063006 12 0 0.0 0.0 0.00 0.00 0.00 94 1025.6
20260505062006 12 0 0.0 3.2 0.00 0.00 0.00 94 1025.1
20260505061005 12 0 0.0 3.2 0.00 0.00 0.00 94 1025.2
20260505060006 12 0 0.0 3.2 0.00 0.00 0.00 94 1025.1
20260505055005 12 0 0.0 3.2 0.00 0.00 0.00 94 1025.0
20260505054010 12 0 0.0 0.0 0.00 0.00 0.00 93 1025.2